SAS4414 ENTC-ENSB

Flight info

Callsign SAS4414
Flight time N/A
Altitude 39000
Route LOMVI P600 INPAR
Aircraft B738/M-SDE2E3FGHIRWXY/LB1

Departure

Time 2026-05-05 11:04
Airport Tromsø Airport (ENTC)

Arrival

Time N/A
Airport Svalbard Airport, Longyear (ENSB)
Time Latitude Longitude Altitude Speed Heading
2026-05-05 10:55 69.67855 18.90829 36 ft 0 kts 283°
2026-05-05 10:59 69.67854 18.90849 36 ft 2 kts 282°
2026-05-05 10:59 69.67850 18.90895 36 ft 2 kts 283°
2026-05-05 10:59 69.67847 18.90941 37 ft 2 kts 282°
2026-05-05 10:59 69.67843 18.90985 37 ft 2 kts 282°
2026-05-05 11:00 69.67840 18.91032 37 ft 2 kts 281°
2026-05-05 11:00 69.67837 18.91079 37 ft 2 kts 278°
2026-05-05 11:00 69.67836 18.91125 37 ft 2 kts 270°
2026-05-05 11:00 69.67839 18.91170 37 ft 2 kts 205°
2026-05-05 11:01 69.67843 18.91175 32 ft 0 kts 191°
2026-05-05 11:01 69.67839 18.91172 36 ft 4 kts 193°
2026-05-05 11:02 69.67783 18.91134 39 ft 13 kts 193°
2026-05-05 11:02 69.67679 18.91065 38 ft 15 kts 189°
2026-05-05 11:02 69.67624 18.91267 39 ft 15 kts 104°
2026-05-05 11:02 69.67541 18.91360 41 ft 15 kts 194°
2026-05-05 11:03 69.67427 18.91282 38 ft 18 kts 192°
2026-05-05 11:03 69.67305 18.91179 32 ft 15 kts 221°
2026-05-05 11:03 69.67264 18.91186 33 ft 7 kts 28°
2026-05-05 11:03 69.67348 18.91232 33 ft 34 kts 12°
2026-05-05 11:04 69.67860 18.91572 38 ft 115 kts 13°
2026-05-05 11:04 69.68862 18.92240 172 ft 170 kts 13°
2026-05-05 11:04 69.70052 18.93057 1008 ft 183 kts 15°
2026-05-05 11:04 69.71328 18.93947 1968 ft 186 kts 14°
2026-05-05 11:05 69.72661 18.94839 2545 ft 212 kts 14°
2026-05-05 11:05 69.74161 18.95834 2872 ft 245 kts 14°
2026-05-05 11:05 69.75852 18.96946 3846 ft 250 kts 14°
2026-05-05 11:05 69.77562 18.98069 4930 ft 255 kts 14°
2026-05-05 11:06 69.79289 18.98981 6048 ft 256 kts
2026-05-05 11:06 69.81092 18.99199 7039 ft 260 kts
2026-05-05 11:06 69.82922 18.99218 8009 ft 266 kts
2026-05-05 11:06 69.84783 18.99221 8973 ft 271 kts
2026-05-05 11:07 69.86694 18.99245 9835 ft 277 kts
2026-05-05 11:07 69.88675 18.99293 10362 ft 297 kts
2026-05-05 11:07 69.90825 18.99365 10769 ft 317 kts
2026-05-05 11:07 69.93079 18.99456 11483 ft 327 kts
2026-05-05 11:08 69.95378 18.99560 12267 ft 335 kts 360°
2026-05-05 11:08 69.97701 18.99672 13330 ft 335 kts 359°
2026-05-05 11:08 70.00030 18.99786 14187 ft 337 kts 359°
2026-05-05 11:08 70.02396 18.99903 15015 ft 340 kts
2026-05-05 11:09 70.04787 19.00023 15750 ft 348 kts 360°
2026-05-05 11:09 70.07184 19.00141 16567 ft 351 kts 359°
2026-05-05 11:09 70.09607 18.99280 17282 ft 353 kts 342°
2026-05-05 11:09 70.11969 18.97068 18016 ft 360 kts 341°
2026-05-05 11:10 70.14348 18.94732 18794 ft 361 kts 341°
2026-05-05 11:10 70.16740 18.92373 19504 ft 365 kts 341°
2026-05-05 11:10 70.19168 18.89997 20124 ft 371 kts 341°
2026-05-05 11:10 70.21641 18.87598 20767 ft 375 kts 341°
2026-05-05 11:11 70.24132 18.85196 21541 ft 377 kts 341°
2026-05-05 11:11 70.26645 18.82778 22141 ft 383 kts 341°
2026-05-05 11:11 70.29195 18.80326 22778 ft 387 kts 341°
2026-05-05 11:11 70.31785 18.77833 23373 ft 391 kts 341°
2026-05-05 11:12 70.34378 18.75331 23965 ft 394 kts 342°
2026-05-05 11:12 70.36995 18.72801 24463 ft 397 kts 341°
2026-05-05 11:12 70.39641 18.70235 24946 ft 402 kts 342°
2026-05-05 11:12 70.42321 18.67627 25390 ft 407 kts 342°
2026-05-05 11:13 70.44987 18.65026 25856 ft 411 kts 342°
2026-05-05 11:13 70.47715 18.62357 26352 ft 413 kts 342°
2026-05-05 11:13 70.50458 18.59668 26873 ft 416 kts 342°
2026-05-05 11:13 70.53217 18.56955 27344 ft 419 kts 342°
2026-05-05 11:14 70.56009 18.54200 27671 ft 425 kts 342°
2026-05-05 11:14 70.58829 18.51405 28107 ft 429 kts 342°
2026-05-05 11:14 70.61673 18.48578 28535 ft 432 kts 342°
2026-05-05 11:14 70.64529 18.45728 28976 ft 434 kts 342°
2026-05-05 11:15 70.67405 18.42848 29436 ft 436 kts 342°
2026-05-05 11:15 70.70295 18.39949 29760 ft 440 kts 342°
2026-05-05 11:15 70.73215 18.37007 29979 ft 445 kts 342°
2026-05-05 11:15 70.76171 18.34025 30213 ft 449 kts 342°
2026-05-05 11:16 70.79131 18.31027 30580 ft 449 kts 342°
2026-05-05 11:16 70.82102 18.28008 30891 ft 451 kts 342°
2026-05-05 11:16 70.85079 18.24975 31205 ft 452 kts 342°
2026-05-05 11:16 70.88029 18.21960 31507 ft 453 kts 342°
2026-05-05 11:17 70.91021 18.18892 31828 ft 454 kts 341°
2026-05-05 11:17 70.94025 18.15800 32156 ft 455 kts 341°
2026-05-05 11:17 70.97021 18.12706 32515 ft 455 kts 342°
2026-05-05 11:17 71.00021 18.09598 32838 ft 455 kts 341°
2026-05-05 11:18 71.03030 18.06472 33109 ft 457 kts 341°
2026-05-05 11:18 71.06046 18.03328 33496 ft 456 kts 342°
2026-05-05 11:18 71.09056 18.00181 33803 ft 455 kts 341°
2026-05-05 11:18 71.12056 17.97033 34029 ft 457 kts 342°
2026-05-05 11:19 71.15031 17.93902 34276 ft 457 kts 341°
2026-05-05 11:19 71.17062 17.91759 34454 ft 457 kts 341°
2026-05-05 11:19 71.21047 17.87540 34759 ft 457 kts 341°
2026-05-05 11:19 71.24062 17.84335 34984 ft 458 kts 341°
2026-05-05 11:20 71.27114 17.81081 35255 ft 457 kts 341°
2026-05-05 11:20 71.30090 17.77897 35512 ft 457 kts 341°
2026-05-05 11:20 71.33103 17.74663 35716 ft 458 kts 341°
2026-05-05 11:20 71.35100 17.72513 35851 ft 458 kts 341°